• In Kazakhstan
  • List of Countries
  • For 7 days
  • Water Temperature
  • Satellite Maps
  • Weather Map
  • News
  • Weather Widgets
  • user-avatar
    Login

    Hourly Weather Townsville

    Today, 24 September, Sunday

    Time Temperature Precipitation Wind Pressure Humidity
    00:00 +21°C° 0 mm 2 mps 755 mmHg 95%
    01:00 +21°C° 0 mm 2 mps 755 mmHg 95%
    02:00 +21°C° 0 mm 2 mps 755 mmHg 95%
    03:00 +21°C° 0 mm 2 mps 755 mmHg 94%
    04:00 +21°C° 0 mm 2 mps 754 mmHg 93%
    05:00 +21°C° 0 mm 2 mps 755 mmHg 91%
    06:00 +21°C° 0 mm 2 mps 755 mmHg 89%
    07:00 +23°C° 0 mm 2 mps 755 mmHg 87%
    08:00 +25°C° 0 mm 2 mps 755 mmHg 74%
    09:00 +27°C° 0 mm 3 mps 755 mmHg 61%
    10:00 +29°C° 0 mm 3 mps 755 mmHg 47%
    11:00 +30°C° 0 mm 3 mps 755 mmHg 43%
    12:00 +32°C° 0 mm 4 mps 754 mmHg 39%
    13:00 +33°C° 0 mm 4 mps 754 mmHg 34%
    14:00 +32°C° 0 mm 4 mps 754 mmHg 37%
    15:00 +30°C° 0 mm 4 mps 753 mmHg 40%
    16:00 +29°C° 0 mm 4 mps 753 mmHg 42%
    17:00 +27°C° 0 mm 3 mps 753 mmHg 55%
    18:00 +25°C° 0 mm 2 mps 754 mmHg 67%
    19:00 +23°C° 0 mm 2 mps 754 mmHg 80%
    20:00 +21°C° 0 mm 2 mps 754 mmHg 84%
    21:00 +22°C° 0 mm 1 mps 755 mmHg 88%
    22:00 +21°C° 0 mm 1 mps 755 mmHg 92%
    23:00 +21°C° 0 mm 1 mps 755 mmHg 92%

    Tomorrow, 25 September, Monday

    Time Temperature Precipitation Wind Pressure Humidity
    00:00 +21°C° 0 mm 1 mps 754 mmHg 93%
    01:00 +20°C° 0 mm 1 mps 754 mmHg 94%
    02:00 +19°C° 0 mm 2 mps 754 mmHg 94%
    03:00 +19°C° 0 mm 2 mps 754 mmHg 95%
    04:00 +19°C° 0 mm 2 mps 754 mmHg 95%
    05:00 +20°C° 0 mm 2 mps 754 mmHg 92%
    06:00 +20°C° 0 mm 2 mps 755 mmHg 89%
    07:00 +21°C° 0 mm 2 mps 755 mmHg 86%
    08:00 +24°C° 0 mm 2 mps 755 mmHg 73%
    09:00 +26°C° 0 mm 3 mps 756 mmHg 60%
    10:00 +29°C° 0 mm 3 mps 756 mmHg 47%
    11:00 +30°C° 0 mm 3 mps 755 mmHg 44%
    12:00 +30°C° 0 mm 3 mps 755 mmHg 41%
    13:00 +31°C° 0 mm 3 mps 754 mmHg 37%
    14:00 +30°C° 0 mm 3 mps 753 mmHg 39%
    15:00 +30°C° 0 mm 3 mps 753 mmHg 40%
    16:00 +29°C° 0 mm 3 mps 752 mmHg 42%
    17:00 +27°C° 0 mm 3 mps 753 mmHg 53%
    18:00 +25°C° 0 mm 2 mps 753 mmHg 63%
    19:00 +21°C° 0 mm 2 mps 754 mmHg 74%
    20:00 +21°C° 0 mm 2 mps 754 mmHg 78%
    21:00 +20°C° 0 mm 2 mps 755 mmHg 81%
    22:00 +21°C° 0 mm 1 mps 755 mmHg 85%
    23:00 +20°C° 0 mm 2 mps 755 mmHg 86%

    Day after tomorrow, 26 September, Tuesday

    Time Temperature Precipitation Wind Pressure Humidity
    00:00 +19°C° 0 mm 2 mps 755 mmHg 88%
    01:00 +19°C° 0 mm 2 mps 754 mmHg 90%
    02:00 +19°C° 0 mm 2 mps 754 mmHg 91%
    03:00 +19°C° 0 mm 2 mps 754 mmHg 92%
    04:00 +19°C° 0 mm 2 mps 754 mmHg 94%
    05:00 +20°C° 0 mm 2 mps 755 mmHg 91%
    06:00 +20°C° 0 mm 2 mps 755 mmHg 87%
    07:00 +21°C° 0 mm 2 mps 756 mmHg 84%
    08:00 +24°C° 0 mm 2 mps 756 mmHg 72%
    09:00 +27°C° 0 mm 2 mps 756 mmHg 59%
    10:00 +29°C° 0 mm 2 mps 756 mmHg 47%
    11:00 +30°C° 0 mm 2 mps 755 mmHg 42%
    12:00 +31°C° 0 mm 2 mps 755 mmHg 38%
    13:00 +33°C° 0 mm 3 mps 754 mmHg 33%
    14:00 +33°C° 0 mm 3 mps 754 mmHg 36%
    15:00 +31°C° 0 mm 3 mps 753 mmHg 39%
    16:00 +30°C° 0 mm 3 mps 753 mmHg 42%
    17:00 +28°C° 0 mm 3 mps 753 mmHg 55%
    18:00 +26°C° 0 mm 3 mps 754 mmHg 69%
    19:00 +23°C° 0 mm 2 mps 754 mmHg 83%
    20:00 +23°C° 0 mm 2 mps 754 mmHg 87%
    21:00 +21°C° 0 mm 2 mps 755 mmHg 91%
    22:00 +21°C° 0 mm 2 mps 755 mmHg 95%
    23:00 +21°C° 0 mm 2 mps 755 mmHg 95%

    27 September, Wednesday

    Time Temperature Precipitation Wind Pressure Humidity
    00:00 +21°C° 0 mm 2 mps 755 mmHg 96%
    01:00 +21°C° 0 mm 2 mps 754 mmHg 96%
    02:00 +21°C° 0 mm 2 mps 754 mmHg 94%
    03:00 +21°C° 0 mm 2 mps 754 mmHg 93%
    04:00 +21°C° 0 mm 2 mps 754 mmHg 91%
    05:00 +23°C° 0 mm 2 mps 755 mmHg 89%
    06:00 +23°C° 0 mm 2 mps 755 mmHg 87%
    07:00 +24°C° 0 mm 2 mps 756 mmHg 85%
    08:00 +26°C° 0 mm 3 mps 756 mmHg 74%
    09:00 +27°C° 0 mm 3 mps 756 mmHg 62%
    10:00 +29°C° 0 mm 3 mps 756 mmHg 51%
    11:00 +30°C° 0 mm 3 mps 755 mmHg 46%
    12:00 +33°C° 0 mm 3 mps 755 mmHg 41%
    13:00 +34°C° 0 mm 3 mps 754 mmHg 36%
    14:00 +33°C° 0 mm 3 mps 754 mmHg 38%
    15:00 +31°C° 0 mm 3 mps 753 mmHg 39%
    16:00 +30°C° 0 mm 3 mps 753 mmHg 40%
    17:00 +28°C° 0 mm 3 mps 753 mmHg 53%
    18:00 +26°C° 0 mm 2 mps 753 mmHg 65%
    19:00 +23°C° 0 mm 2 mps 754 mmHg 77%
    20:00 +23°C° 0 mm 2 mps 754 mmHg 82%
    21:00 +21°C° 0 mm 2 mps 755 mmHg 87%
    22:00 +21°C° 0 mm 2 mps 755 mmHg 93%
    23:00 +21°C° 0 mm 2 mps 755 mmHg 93%

    28 September, Thursday

    Time Temperature Precipitation Wind Pressure Humidity
    00:00 +21°C° 0 mm 2 mps 754 mmHg 93%
    01:00 +21°C° 0 mm 2 mps 754 mmHg 94%
    02:00 +21°C° 0 mm 2 mps 754 mmHg 93%
    03:00 +21°C° 0 mm 2 mps 754 mmHg 92%
    04:00 +21°C° 0 mm 2 mps 754 mmHg 92%
    05:00 +21°C° 0 mm 2 mps 754 mmHg 90%
    06:00 +22°C° 0 mm 3 mps 755 mmHg 88%
    07:00 +22°C° 0 mm 3 mps 755 mmHg 86%
    08:00 +25°C° 0 mm 3 mps 755 mmHg 76%
    09:00 +27°C° 0 mm 3 mps 755 mmHg 67%
    10:00 +29°C° 0 mm 4 mps 755 mmHg 57%
    11:00 +30°C° 0 mm 4 mps 754 mmHg 54%
    12:00 +32°C° 0 mm 4 mps 753 mmHg 52%
    13:00 +33°C° 0 mm 4 mps 753 mmHg 49%
    14:00 +32°C° 0 mm 4 mps 752 mmHg 52%
    15:00 +30°C° 0 mm 4 mps 752 mmHg 55%
    16:00 +29°C° 0 mm 4 mps 751 mmHg 58%
    17:00 +28°C° 0 mm 4 mps 752 mmHg 68%
    18:00 +26°C° 0 mm 3 mps 753 mmHg 77%
    19:00 +24°C° 0 mm 3 mps 753 mmHg 86%
    20:00 +24°C° 0 mm 3 mps 754 mmHg 88%
    21:00 +22°C° 0 mm 3 mps 754 mmHg 91%
    22:00 +22°C° 0 mm 3 mps 755 mmHg 93%
    23:00 +22°C° 0 mm 3 mps 754 mmHg 93%

    29 September, Friday

    Time Temperature Precipitation Wind Pressure Humidity
    00:00 +22°C° 0 mm 3 mps 754 mmHg 93%
    01:00 +21°C° 0 mm 3 mps 754 mmHg 93%
    02:00 +21°C° 0 mm 3 mps 754 mmHg 94%
    03:00 +21°C° 0 mm 2 mps 754 mmHg 94%
    04:00 +21°C° 0 mm 2 mps 754 mmHg 95%
    05:00 +21°C° 0 mm 2 mps 755 mmHg 92%
    06:00 +23°C° 0 mm 2 mps 755 mmHg 90%
    07:00 +23°C° 0 mm 2 mps 756 mmHg 87%
    08:00 +25°C° 0 mm 2 mps 756 mmHg 76%
    09:00 +27°C° 0 mm 3 mps 756 mmHg 64%
    10:00 +30°C° 0 mm 3 mps 756 mmHg 53%
    11:00 +31°C° 0 mm 3 mps 755 mmHg 49%
    12:00 +33°C° 0 mm 3 mps 754 mmHg 46%
    13:00 +34°C° 0 mm 3 mps 753 mmHg 42%
    14:00 +33°C° 0 mm 3 mps 753 mmHg 46%
    15:00 +32°C° 0 mm 4 mps 753 mmHg 49%
    16:00 +30°C° 0 mm 4 mps 752 mmHg 53%
    17:00 +28°C° 0 mm 3 mps 753 mmHg 62%
    18:00 +26°C° 0 mm 3 mps 754 mmHg 71%
    19:00 +24°C° 0 mm 3 mps 754 mmHg 80%
    20:00 +22°C° 0 mm 3 mps 755 mmHg 83%
    21:00 +22°C° 0 mm 3 mps 755 mmHg 86%
    22:00 +21°C° 0 mm 3 mps 755 mmHg 89%
    23:00 +21°C° 0 mm 3 mps 755 mmHg 90%
    Show more